Weather History for Gulkana, AK

Change the Weather History Date:

Wednesday, April 3, 2013

  Actual Average Record
Temperature  
Mean Temperature 23 °F -  
Max Temperature 39 °F 37 °F 52 °F (1958)
Min Temperature 7 °F 14 °F -20 °F (1952)
Degree Days  
Heating Degree Days 42    
Moisture  
Dew Point 11 °F    
Average Humidity 56    
Maximum Humidity 88    
Minimum Humidity 20    
Precipitation  
Precipitation 0.00 in - - ()
Snow  
Snow 0.00 in - - ()
Snow Depth 6.00 in    
Sea Level Pressure  
Sea Level Pressure 30.26 in    
Wind  
Wind Speed 3 mph (NNW)    
Max Wind Speed 16 mph    
Max Gust Speed -    
Visibility 10 miles    
Events      
Averages and records for this station are not official NWS values.
T = Trace of Precipitation, MM = Missing Value Source: NWS Daily Summary

Daily Weather History Graph

Daily Weather History Graph

Search for Another Location

Airport:

Trip Planner

Search our weather history database for the weather conditions in past years. The results will help you decide how hot, cold, wet, or windy it might be!

Date:

Astronomy

Apr. 03, 2013 Rise Set
Actual Time 6:55 AM AKDT 8:36 PM AKDT
Civil Twilight 6:08 AM AKDT 9:23 PM AKDT
Nautical Twilight 5:08 AM AKDT 10:23 PM AKDT
Astronomical Twilight 3:53 AM AKDT 11:40 PM AKDT
Moon 4:39 AM AKDT (4/3) 12:05 PM AKDT (4/3)
Length of Visible Light 15h 14m
Length of Day
13h 40m
Last Quarter, 43% of the Moon is Illuminated
Apr 3
Last Quarter
Apr 10
New
Apr 18
First Quarter
Apr 25
Full
May 2
Last Quarter

Hourly Weather History & Observations

Time (AKDT) Temp. Windchill Dew Point Humidity Pressure Visibility Wind Dir Wind Speed Gust Speed Precip Events Conditions
12:53 AM 21.0 °F 16.2 °F 12.0 °F 68% 30.22 in 10.0 mi SW 3.5 mph - N/A   Clear
1:53 AM 17.1 °F 11.7 °F 10.0 °F 74% 30.23 in 10.0 mi West 3.5 mph - N/A   Clear
2:53 AM 14.0 °F - 8.1 °F 77% 30.24 in 10.0 mi Calm Calm - N/A   Clear
3:53 AM 12.0 °F - 7.0 °F 80% 30.25 in 10.0 mi Calm Calm - N/A   Clear
4:53 AM 10.9 °F 2.9 °F 6.1 °F 81% 30.25 in 10.0 mi WNW 4.6 mph - N/A   Partly Cloudy
5:53 AM 10.0 °F 1.8 °F 5.0 °F 80% 30.27 in 10.0 mi NNW 4.6 mph - N/A   Scattered Clouds
6:53 AM 9.0 °F 2.4 °F 6.1 °F 88% 30.28 in 10.0 mi NNW 3.5 mph - N/A   Scattered Clouds
7:53 AM 10.9 °F 4.7 °F 6.1 °F 81% 30.29 in 10.0 mi NNW 3.5 mph - N/A   Mostly Cloudy
8:53 AM 18.0 °F 9.8 °F 9.0 °F 68% 30.30 in 10.0 mi North 5.8 mph - N/A   Scattered Clouds
9:53 AM 23.0 °F - 10.0 °F 58% 30.30 in 10.0 mi Calm Calm - N/A   Scattered Clouds
10:53 AM 27.0 °F - 10.9 °F 51% 30.30 in 10.0 mi Calm Calm - N/A   Scattered Clouds
11:53 AM 28.9 °F - 12.0 °F 49% 30.30 in 10.0 mi Calm Calm - N/A   Scattered Clouds
12:53 PM 32.0 °F - 14.0 °F 48% 30.29 in 10.0 mi Calm Calm - N/A   Scattered Clouds
1:53 PM 36.0 °F - 14.0 °F 41% 30.29 in 10.0 mi Calm Calm - N/A   Scattered Clouds
2:53 PM 36.0 °F - 12.9 °F 39% 30.29 in 10.0 mi Calm Calm - N/A   Mostly Cloudy
3:53 PM 39.0 °F - 12.0 °F 33% 30.27 in 10.0 mi Calm Calm - N/A   Mostly Cloudy
4:53 PM 37.0 °F - 12.0 °F 36% 30.27 in 10.0 mi Calm Calm - N/A   Mostly Cloudy
5:53 PM 37.0 °F 33.3 °F 12.0 °F 36% 30.26 in 10.0 mi Variable 4.6 mph - N/A   Mostly Cloudy
6:53 PM 37.0 °F 31.6 °F 16.0 °F 42% 30.26 in 10.0 mi North 6.9 mph - N/A   Scattered Clouds
7:53 PM 33.1 °F 28.7 °F 12.9 °F 43% 30.25 in 10.0 mi NNW 4.6 mph - N/A   Scattered Clouds
8:53 PM 30.0 °F 23.2 °F 15.1 °F 54% 30.25 in 10.0 mi North 6.9 mph - N/A   Scattered Clouds
9:28 PM 30.0 °F 22.4 °F 14.0 °F 51% 30.14 in 10.0 mi NNW 8.1 mph - N/A   Scattered Clouds
9:53 PM 28.0 °F 19.3 °F 14.0 °F 56% 30.25 in 10.0 mi North 9.2 mph - N/A   Clear
10:53 PM 27.0 °F 15.6 °F 10.9 °F 51% 30.25 in 10.0 mi NNE 13.8 mph - N/A   Clear
11:53 PM 25.0 °F 12.2 °F 8.1 °F 49% 30.25 in 10.0 mi North 16.1 mph - N/A   Clear